Waarnemingen

Advertentie
Mijn weer
Lahr, Duitsland (10805): temperatuur & dauwpunt: 19.09.2017 06:00:00 - 25.09.2017 06:00:00 (CEST)Lahr, Duitsland (10805): temperatuur 5cm & temperatuur -5cm: 19.09.2017 06:00:00 - 25.09.2017 06:00:00 (CEST)Lahr, Duitsland (10805): temperatuur -20cm & temperatuur -100cm: 19.09.2017 06:00:00 - 25.09.2017 06:00:00 (CEST)Lahr, Duitsland (10805): windsnelheid & windstoten: 19.09.2017 06:00:00 - 25.09.2017 06:00:00 (CEST)Lahr, Duitsland (10805): windrichting: 19.09.2017 06:00:00 - 25.09.2017 06:00:00 (CEST)Lahr, Duitsland (10805): luchtdruk: 19.09.2017 06:00:00 - 25.09.2017 06:00:00 (CEST)Lahr, Duitsland (10805): zicht: 19.09.2017 06:00:00 - 25.09.2017 06:00:00 (CEST)Lahr, Duitsland (10805): Zonneschijnduur: 19.09.2017 06:00:00 - 25.09.2017 06:00:00 (CEST)Lahr, Duitsland (10805): neerslag: 19.09.2017 06:00:00 - 25.09.2017 06:00:00 (CEST)
Datum & Tijd tt [°C] td [°C] tt 5cm [°C] tt -5cm [°C] tt -20cm [°C] tt -100cm [°C] ff [km/u] ff [kn] fx [km/u] fx [kn] dd ppp [hPa] vv [km] sd [min] rr [mm]
25.09.2017 06:00:00 10,4 10,4 10,8 12,3 14,6 16,4 5 3 7 4 W 1020,4 0,1 0 0,0
25.09.2017 05:00:00 10,5 10,5 10,8 12,1 14,7 16,4 6 3 12 6 NNO 1020,4 0,1 0 0,0
25.09.2017 04:00:00 10,4 10,2 10,3 11,5 14,9 16,4 1 0 4 2 ZZW 1020,6 2,8 0 0,0
25.09.2017 03:00:00 10,1 9,8 6,5 11,3 15,2 16,4 1 0 5 3 WZW 1020,6 0,8 0 0,0
25.09.2017 02:00:00 9,9 9,7 7,7 11,8 15,4 16,4 3 1 7 4 ZZW 1020,8 1,5 0 0,0
25.09.2017 01:00:00 10,5 10,2 8,0 12,5 15,6 16,4 5 3 7 4 ONO 1021,2 3,6 0 0,0
25.09.2017 00:00:00 11,3 10,1 8,1 13,3 15,8 16,4 3 1 8 5 N 1021,3 6 0 0,0
24.09.2017 23:00:00 12,9 11,2 9,9 14,2 16,0 16,4 3 2 6 4 N 1021,4 12 0 0,0
24.09.2017 22:00:00 14,8 11,8 13,3 15,1 16,1 16,4 2 1 7 4 W 1021,3 15 0 0,0
24.09.2017 21:00:00 15,1 11,9 13,0 15,5 16,2 16,4 5 3 10 5 N 1021,0 22 0 0,0
24.09.2017 20:00:00 14,9 11,5 12,8 16,3 16,3 16,4 6 3 11 6 N 1020,7 28 0 0,0
24.09.2017 19:00:00 16,6 11,7 14,7 18,1 16,2 16,4 9 5 18 10 N 1020,5 28 56 0,0
24.09.2017 18:00:00 19,2 11,6 18,9 19,5 15,9 16,4 13 7 19 11 N 1020,1 35 60 0,0
24.09.2017 17:00:00 19,9 10,3 20,8 20,7 15,6 16,4 9 5 17 9 NNO 1020,3 31 60 0,0
24.09.2017 16:00:00 19,3 11,3 21,5 20,8 15,1 16,4 9 5 18 10 N 1020,4 22 60 0,0
24.09.2017 15:00:00 18,1 12,5 20,7 20,0 14,7 16,4 12 6 21 11 NO 1020,9 18 60 0,0
24.09.2017 14:00:00 15,7 12,7 18,8 18,3 14,4 16,4 11 6 17 9 NNO 1021,3 7 38 0,0
24.09.2017 13:00:00 12,6 11,0 15,4 16,1 14,2 16,4 10 5 14 8 NNO 1022,2 4,5 0 0,0
24.09.2017 12:00:00 11,9 10,9 14,4 14,8 14,1 16,4 5 3 11 6 N 1022,5 3,7 0 0,0
24.09.2017 11:00:00 11,3 11,0 13,1 13,7 14,0 16,4 3 1 8 4 N 1022,4 0,8 0 0,0
24.09.2017 10:00:00 10,8 10,8 12,2 12,5 14,0 16,4 5 3 8 5 WZW 1022,4 0,2 0 0,0
24.09.2017 09:00:00 10,4 10,3 11,1 11,6 14,1 16,4 5 3 6 4 WZW 1022,1 0,2 0 0,0
24.09.2017 08:00:00 9,8 9,7 10,0 10,4 14,4 16,4 3 1 6 3 NO 1021,7 0,7 0 0,0
24.09.2017 07:00:00 8,5 8,5 6,7 10,1 14,6 16,4 0 0 4 2 N 1021,4 0,2 0 0,0
24.09.2017 06:00:00 9,2 9,2 7,0 10,6 14,9 16,4 2 1 4 2 ONO 1021,2 3,6 0 0,0
24.09.2017 05:00:00 9,7 9,5 7,6 11,2 15,1 16,4 0 0 6 3 N 1020,9 4,0 0 0,0
24.09.2017 04:00:00 10,9 10,2 9,0 11,9 15,3 16,4 5 3 7 4 NNW 1020,8 4,3 0 0,0
24.09.2017 03:00:00 11,3 10,4 10,6 12,4 15,6 16,4 4 2 8 4 ONO 1020,8 4,1 0 0,0
24.09.2017 02:00:00 11,3 10,4 9,9 12,9 15,8 16,4 7 4 8 4 NNO 1020,8 7 0 0,0
24.09.2017 01:00:00 12,2 11,0 11,5 13,3 16,0 16,4 4 2 9 5 NO 1021,0 9 0 0,0
24.09.2017 00:00:00 12,7 11,2 11,0 13,9 16,2 16,4 3 2 9 5 N 1021,0 12 0 0,0
23.09.2017 23:00:00 13,9 11,4 12,2 14,4 16,4 16,4 5 3 7 4 NNW 1021,0 20 0 0,0
23.09.2017 22:00:00 14,2 11,8 13,2 15,0 16,7 16,4 4 2 9 5 ONO 1021,0 15 0 0,0
23.09.2017 21:00:00 13,4 10,7 12,2 15,2 16,9 16,4 8 4 11 6 N 1021,0 18 0 0,0
23.09.2017 20:00:00 14,4 11,2 13,1 16,1 17,1 16,4 10 5 12 6 N 1020,5 23 0 0,0
23.09.2017 19:00:00 16,9 11,4 15,4 17,5 17,1 16,4 9 5 21 11 NNO 1020,2 46 0 0,0
23.09.2017 18:00:00 19,4 11,0 18,8 19,7 17,0 16,4 15 8 24 13 N 1020,2 10 48 0,0
23.09.2017 17:00:00 20,5 11,9 20,9 21,0 16,7 16,4 16 9 26 14 NNO 1019,9 29 58 0,0
23.09.2017 16:00:00 20,5 12,2 21,8 22,0 16,3 16,4 13 7 24 13 NNO 1020,6 29 60 0,0
23.09.2017 15:00:00 19,8 11,5 21,7 22,3 15,7 16,4 14 8 31 17 NNO 1021,1 26 57 0,0
23.09.2017 14:00:00 18,9 11,9 20,8 22,3 15,1 16,4 13 7 20 11 N 1021,5 34 58 0,0
23.09.2017 13:00:00 18,4 11,9 21,6 22,2 14,4 16,4 9 5 15 8 NNO 1022,1 28 60 0,0
23.09.2017 12:00:00 16,7 11,7 19,6 20,3 13,9 16,4 5 3 9 5 NNO 1022,8 29 60 0,0
23.09.2017 11:00:00 15,2 10,9 17,4 17,6 13,5 16,4 4 2 8 4 NO 1023,2 26 60 0,0
23.09.2017 10:00:00 14,6 10,0 14,3 14,1 13,4 16,4 2 1 4 2 W 1023,3 27 60 0,0
23.09.2017 09:00:00 10,2 8,8 10,9 10,6 13,6 16,4 4 2 3 2 Z 1023,6 10 60 0,0
23.09.2017 08:00:00 7,5 7,3 6,5 9,4 13,8 16,4 0 0 5 3 N 1023,4 0,7 4 0,0
23.09.2017 07:00:00 8,0 8,0 7,0 9,5 14,0 16,4 0 0 6 3 N 1023,4 0,2 0 0,0
23.09.2017 06:00:00 7,9 7,7 6,8 9,5 14,3 16,5 4 2 5 3 NNO 1023,3 7 0 0,0
23.09.2017 05:00:00 8,2 8,0 6,9 10,0 14,6 16,5 3 2 5 3 N 1023,3 7 0 0,0
23.09.2017 04:00:00 9,2 8,5 7,2 10,4 14,8 16,5 4 2 7 4 ZW 1023,3 16 0 0,0
23.09.2017 03:00:00 8,9 8,4 6,9 10,9 15,1 16,5 3 1 7 4 NO 1023,2 0,8 0 0,0
23.09.2017 02:00:00 9,9 9,6 8,9 11,5 15,4 16,5 8 4 14 8 NNW 1023,2 14 0 0,0
23.09.2017 01:00:00 11,2 10,2 9,4 12,0 15,7 16,5 7 4 13 7 ZZO 1023,0 29 0 0,0
23.09.2017 00:00:00 12,0 10,9 9,7 12,7 16,1 16,5 5 3 6 3 OZO 1022,8 17 0 0,0
22.09.2017 23:00:00 12,0 11,0 9,6 13,2 16,4 16,5 3 2 4 2 W 1022,7 32 0 0,0
22.09.2017 22:00:00 11,3 10,3 9,8 14,1 16,7 16,5 4 2 8 4 N 1022,1 36 0 0,0
22.09.2017 21:00:00 13,2 11,3 11,5 15,3 16,9 16,5 0 0 8 4 N 1021,8 35 0 0,0
22.09.2017 20:00:00 14,9 12,0 13,2 16,6 17,1 16,5 6 4 8 5 ONO 1021,1 31 1 0,0
22.09.2017 19:00:00 17,1 11,5 15,5 18,4 17,0 16,5 7 4 10 5 NNO 1020,5 55 6 0,0
22.09.2017 18:00:00 19,0 12,2 18,6 20,5 16,8 16,5 9 5 11 6 N 1020,3 10 28 0,0
22.09.2017 17:00:00 20,9 9,8 21,6 22,7 16,3 16,5 8 4 12 6 NNO 1020,1 55 59 0,0
22.09.2017 16:00:00 21,3 9,7 22,7 23,8 15,7 16,5 5 3 10 5 NNO 1020,1 10 60 0,0
22.09.2017 15:00:00 20,5 8,4 22,6 23,9 15,0 16,5 4 2 10 6 N 1020,3 51 60 0,0
22.09.2017 14:00:00 19,5 9,4 23,3 23,2 14,3 16,5 5 3 10 5 - 1020,6 10 60 0,0
22.09.2017 13:00:00 18,2 9,1 20,7 21,5 13,6 16,5 4 2 11 6 ZW 1020,9 36 60 0,0
22.09.2017 12:00:00 16,6 9,4 20,1 18,9 13,1 16,5 3 2 16 9 W 1021,2 40 60 0,0
22.09.2017 11:00:00 14,2 9,3 17,0 15,3 12,7 16,5 7 4 10 5 WZW 1021,6 31 60 0,0
22.09.2017 10:00:00 13,9 9,4 13,5 13,2 12,6 16,6 2 1 4 2 ZO 1021,4 23 60 0,0
22.09.2017 09:00:00 9,6 7,5 10,0 9,5 12,8 16,6 2 1 6 4 NNO 1021,4 20 60 0,0
22.09.2017 08:00:00 6,4 6,0 5,3 7,7 13,0 16,6 3 2 6 3 ZZO 1021,4 13 13 0,0
22.09.2017 07:00:00 6,0 5,6 4,1 8,0 13,3 16,6 3 2 6 3 N 1020,9 10 0 0,0
22.09.2017 06:00:00 6,2 5,8 4,7 8,3 13,5 16,6 3 2 4 2 ONO 1020,6 9 0 0,0
22.09.2017 05:00:00 6,3 5,8 5,0 8,8 13,8 16,6 0 0 10 5 N 1020,6 10 0 0,0
22.09.2017 04:00:00 8,4 8,0 7,1 9,2 14,1 16,6 5 3 8 4 ZZW 1020,4 20 0 0,0
22.09.2017 03:00:00 8,5 7,8 6,8 9,7 14,4 16,6 5 3 8 4 ZW 1020,6 15 0 0,0
22.09.2017 02:00:00 9,1 8,6 7,0 10,3 14,7 16,6 4 2 9 5 ZZW 1020,6 19 0 0,0
22.09.2017 01:00:00 9,6 8,7 7,7 10,8 14,9 16,6 4 2 6 3 ZW 1020,3 21 0 0,0
22.09.2017 00:00:00 11,3 10,1 9,9 11,4 15,2 16,6 8 4 14 8 ZZO 1020,2 21 0 0,0
21.09.2017 23:00:00 9,9 9,2 7,7 12,0 15,6 16,6 4 2 5 3 Z 1020,2 14 0 0,0
21.09.2017 22:00:00 10,5 9,6 8,5 12,8 15,8 16,6 1 0 3 2 Z 1020,0 16 0 0,0
21.09.2017 21:00:00 11,4 9,9 9,0 13,9 16,1 16,6 3 2 8 4 ZZO 1019,7 22 0 0,0
21.09.2017 20:00:00 14,8 10,7 11,2 15,3 16,2 16,6 3 2 7 4 O 1019,1 40 1 0,0
21.09.2017 19:00:00 15,6 10,9 14,0 17,1 16,1 16,6 7 4 14 8 N 1018,8 53 29 0,0
21.09.2017 18:00:00 18,1 10,3 18,1 19,0 15,9 16,6 9 5 16 9 N 1018,6 48 60 0,0
21.09.2017 17:00:00 18,2 9,7 19,3 20,2 15,5 16,7 9 5 19 11 N 1018,8 42 60 0,0
21.09.2017 16:00:00 17,7 8,8 19,6 21,0 15,0 16,7 11 6 21 11 N 1019,3 10 59 0,0
21.09.2017 15:00:00 17,0 8,9 19,4 21,5 14,4 16,7 12 6 21 11 N 1019,9 26 60 0,0
21.09.2017 14:00:00 16,5 10,6 19,3 21,2 13,7 16,7 9 5 18 10 NNW 1020,6 25 60 0,0
21.09.2017 13:00:00 14,4 9,8 17,9 19,7 13,1 16,7 8 4 13 7 N 1021,3 10 60 0,0
21.09.2017 12:00:00 11,3 8,0 14,5 17,0 12,6 16,7 5 3 11 6 - 1022,2 10 39 0,0
21.09.2017 11:00:00 9,6 8,3 11,7 14,5 12,4 16,7 7 4 10 6 W 1022,6 8 35 0,0
21.09.2017 10:00:00 8,4 6,6 11,6 11,4 12,3 16,7 3 2 6 3 W 1022,9 9 34 0,0
21.09.2017 09:00:00 6,2 6,0 6,8 8,7 12,5 16,7 0 0 6 3 OZO 1022,7 0,2 0 0,0
21.09.2017 08:00:00 5,1 5,1 5,6 7,6 12,7 16,7 4 2 6 4 NNO 1022,7 0,1 0 0,0
21.09.2017 07:00:00 4,4 4,3 3,3 7,1 12,9 16,7 2 1 8 4 NNO 1022,9 6 0 0,0
21.09.2017 06:00:00 5,3 5,2 4,2 7,7 13,2 16,7 3 1 10 6 O 1022,6 8 0 0,0
21.09.2017 05:00:00 6,0 5,9 3,7 8,3 13,4 16,7 3 2 9 5 NW 1022,7 4,5 0 0,0
21.09.2017 04:00:00 7,0 7,0 6,4 9,1 13,7 16,7 1 1 8 4 WZW 1022,9 0,2 0 0,0
21.09.2017 03:00:00 6,5 6,5 6,6 8,5 14,0 16,7 5 3 8 4 O 1023,0 0,2 0 0,0
21.09.2017 02:00:00 6,5 6,3 6,1 8,9 14,3 16,7 4 2 9 5 NO 1023,2 0,1 0 0,0
21.09.2017 01:00:00 6,9 6,8 4,8 9,3 14,6 16,7 4 2 6 4 WNW 1023,3 4,8 0 0,0
21.09.2017 00:00:00 7,2 7,0 5,7 9,9 15,0 16,7 2 1 3 2 W 1023,4 0,5 0 0,0
20.09.2017 23:00:00 8,0 7,7 6,2 10,7 15,3 16,7 3 2 5 3 N 1023,3 6 0 0,0
20.09.2017 22:00:00 8,7 8,5 6,2 11,5 15,7 16,7 1 0 6 3 WZW 1023,1 3,8 0 0,0
20.09.2017 21:00:00 9,1 8,3 7,7 12,6 16,0 16,7 4 2 7 4 ONO 1023,1 7 0 0,0
20.09.2017 20:00:00 12,1 9,7 10,4 14,0 16,1 16,7 5 3 11 6 ONO 1022,6 15 - 0,0
20.09.2017 19:00:00 13,4 10,0 12,2 15,8 16,2 16,7 9 5 16 9 NNO 1022,3 26 - 0,0
20.09.2017 18:00:00 15,1 9,5 15,5 17,5 16,1 16,8 10 5 18 10 NNO 1022,1 28 31 0,0
20.09.2017 17:00:00 15,4 9,1 16,2 18,4 16,0 16,8 9 5 14 8 NNW 1022,4 31 1 0,0
20.09.2017 16:00:00 15,3 9,9 17,0 18,7 15,7 16,8 8 5 24 13 WNW 1022,4 29 0 0,0
20.09.2017 15:00:00 16,1 8,1 18,2 21,9 15,2 16,8 8 4 14 8 NW 1022,6 28 33 0,0
20.09.2017 14:00:00 15,5 7,5 17,4 19,7 14,7 16,8 5 3 13 7 ZW 1022,8 31 10 0,0
20.09.2017 13:00:00 16,1 8,2 20,2 20,2 14,2 16,8 5 3 14 8 ONO 1023,2 24 48 0,0
20.09.2017 12:00:00 14,0 8,9 15,6 17,2 13,8 16,8 8 5 16 8 ZW 1023,4 22 35 0,0
20.09.2017 11:00:00 13,6 9,6 16,1 15,8 13,6 16,8 9 5 21 11 ZZW 1023,6 21 59 0,0
20.09.2017 10:00:00 12,1 9,7 12,7 12,9 13,6 16,8 13 7 18 10 ZZW 1023,7 14 45 0,0
20.09.2017 09:00:00 10,9 9,8 11,2 10,9 13,7 16,8 5 3 9 5 ZZW 1023,5 15 12 0,0
20.09.2017 08:00:00 8,7 8,5 8,3 10,1 13,9 16,8 5 3 9 5 ZW 1023,4 9 0 0,0
20.09.2017 07:00:00 9,6 9,0 8,9 10,6 14,1 16,8 6 4 12 6 Z 1023,0 9 0 0,0
20.09.2017 06:00:00 9,9 9,4 9,3 10,6 14,3 16,8 7 4 11 6 Z 1022,8 8 0 0,0
20.09.2017 05:00:00 9,6 9,4 8,7 11,0 14,5 16,8 6 4 11 6 ZW 1022,7 8 0 0,0
20.09.2017 04:00:00 9,9 9,5 9,4 11,6 14,6 16,8 5 3 8 5 ZZW 1022,4 11 0 0,0
20.09.2017 03:00:00 11,1 9,9 9,8 12,3 14,8 16,8 4 2 9 5 ZZW 1022,3 26 0 0,0
20.09.2017 02:00:00 11,2 10,2 10,9 12,4 14,9 16,8 5 3 14 8 ZO 1022,2 23 0 0,0
20.09.2017 01:00:00 11,3 10,2 10,9 12,5 15,1 16,8 8 5 16 9 ZZW 1022,0 30 0 1,2
20.09.2017 00:00:00 11,3 10,5 11,0 12,9 15,3 16,9 9 5 16 8 ZW 1022,1 6 0 0,6
19.09.2017 23:00:00 11,8 9,7 11,5 13,2 15,5 16,9 11 6 18 10 Z 1021,8 19 0 0,0
19.09.2017 22:00:00 12,1 9,8 11,8 13,7 15,7 16,9 10 5 16 9 Z 1021,5 70 0 0,0
19.09.2017 21:00:00 12,6 10,0 11,8 14,4 15,8 16,9 4 2 10 6 ZZO 1021,2 62 0 0,1
19.09.2017 20:00:00 12,8 10,2 12,3 15,1 15,9 16,9 6 4 14 7 ZZW 1020,2 70 0 0,0
19.09.2017 19:00:00 14,3 10,0 14,7 16,4 15,8 16,9 8 4 13 7 ZZW 1019,5 69 23 0,0
19.09.2017 18:00:00 14,7 10,6 15,2 17,6 15,6 16,9 5 3 22 12 ZO 1019,1 70 29 0,0
19.09.2017 17:00:00 15,4 9,0 18,0 19,7 15,2 16,9 11 6 18 10 W 1018,7 67 50 0,0
19.09.2017 16:00:00 14,0 8,7 14,8 19,5 14,8 16,9 9 5 14 8 NW 1018,9 70 36 0,0
19.09.2017 15:00:00 14,4 8,9 16,2 17,9 14,5 16,9 3 2 14 8 Z 1018,9 63 13 0,0
19.09.2017 14:00:00 12,8 10,0 13,4 17,0 14,1 16,9 9 5 18 10 W 1019,1 70 12 0,4
19.09.2017 13:00:00 13,3 9,7 15,3 16,5 13,8 16,9 8 4 12 7 Z 1019,1 67 3 0,0
19.09.2017 12:00:00 12,0 9,4 13,5 14,5 13,7 16,9 8 4 14 8 ZW 1019,3 51 0 0,0
19.09.2017 11:00:00 11,2 9,2 11,9 12,7 13,6 16,9 10 5 16 9 Z 1019,2 41 0 0,4
19.09.2017 10:00:00 10,7 9,8 10,6 11,9 13,7 16,9 7 4 16 9 ZZW 1019,1 6 0 1,1
19.09.2017 09:00:00 10,9 8,9 10,5 11,4 13,7 16,9 8 4 15 8 Z 1018,7 10 0 0,0
19.09.2017 08:00:00 10,4 8,8 9,7 10,8 13,9 17,0 5 3 11 6 ZZW 1018,5 66 0 0,0
19.09.2017 07:00:00 9,8 8,9 9,2 10,9 14,0 17,0 9 5 13 7 Z 1018,3 70 0 0,0
19.09.2017 06:00:00 9,7 9,1 9,4 11,0 14,1 17,0 4 2 14 8 ZZO 1018,2 30 0 0,0

tt = temperatuur
td = dauwpunt
tt 5cm = temperatuur 5cm
tt -5cm = temperatuur -5cm
tt -20cm = temperatuur -20cm
tt -100cm = temperatuur -100cm
ff = windsnelheid
fx = windstoten
dd = windrichting
ppp = luchtdruk
vv = zicht
sd = Zonneschijnduur
rr = neerslag

Weerstations in de omgeving